Location: İstanbul
(41.0082°N, 28.9784°E)
Time: 22:18:34
(UTC+03:00)

ITUPSAT 1 - Pass Details

Date: 02 May 2024
Orbit: 694 x 707 km, 98.5° (Epoch: 29 May)

Event Time Altitude Azimuth Distance (km) Brightness Sun altitude
Rises 22:59:49 0° 15° (NNE) 3,081 ? -26.7°
Reaches altitude 10° 23:02:05 10° 18° (NNE) 2,159 ? -26.9°
Enters shadow 23:05:38 49° 36° (NE) 892 ? -27.3°
